Weather History for KBHK - November, 2013

Change the Weather History Date:

Sunday, November 3, 2013

  Actual Average Record
Temperature  
Mean Temperature 38 °F -  
Max Temperature 50 °F 46 °F 61 °F (2001)
Min Temperature 26 °F 24 °F 12 °F (2011)
Degree Days  
Heating Degree Days 27    
Moisture  
Dew Point 25 °F    
Average Humidity 64    
Maximum Humidity 85    
Minimum Humidity 31    
Precipitation  
Precipitation 0.00 in - - ()
Sea Level Pressure  
Sea Level Pressure 29.66 in    
Wind  
Wind Speed 11 mph (West)    
Max Wind Speed 28 mph    
Max Gust Speed 37 mph    
Visibility 10 miles    
Events      
Averages and records for this station are not official NWS values.
T = Trace of Precipitation, MM = Missing Value Source: NWS Daily Summary

Daily Weather History Graph

Daily Weather History Graph

Search for Another Location

Airport or City:

Trip Planner

Search our weather history database for the weather conditions in past years. The results will help you decide how hot, cold, wet, or windy it might be!

Date:

Astronomy

Nov. 03, 2013 Rise Set
Actual Time 6:41 AM MST 4:38 PM MST
Civil Twilight 6:09 AM MST 5:10 PM MST
Nautical Twilight 5:34 AM MST 5:46 PM MST
Astronomical Twilight 4:59 AM MST 6:21 PM MST
Moon 6:49 AM MST (11/3) 4:53 PM MST (11/3)
Length of Visible Light 11h 00m
Length of Day
9h 57m
New Moon, 0% of the Moon is Illuminated
Nov 3
New Moon
Nov 9
First Quarter
Nov 17
Full
Nov 25
Last Quarter
Dec 2
New

Hourly Weather History & Observations

Time (MST) Temp. Windchill Dew Point Humidity Pressure Visibility Wind Dir Wind Speed Gust Speed Precip Events Conditions
12:51 AM 32.0 °F 24.2 °F 27.0 °F 82% 29.56 in 10.0 mi ESE 9.2 mph - N/A   Clear
1:51 AM 30.0 °F 24.1 °F 26.1 °F 85% 29.56 in 10.0 mi ESE 5.8 mph - N/A   Clear
1:51 AM 30.0 °F 26.5 °F 26.1 °F 85% 29.54 in 10.0 mi SE 3.5 mph - N/A   Clear
2:51 AM 28.0 °F - 23.0 °F 81% 29.54 in 10.0 mi Calm Calm - N/A   Clear
3:51 AM 26.1 °F - 21.9 °F 84% 29.55 in 10.0 mi Calm Calm - N/A   Clear
4:51 AM 32.0 °F 21.6 °F 27.0 °F 82% 29.57 in 10.0 mi WSW 15.0 mph - N/A   Clear
5:51 AM 35.1 °F 25.2 °F 30.0 °F 82% 29.60 in 10.0 mi West 16.1 mph - N/A   Clear
6:51 AM 34.0 °F 24.6 °F 28.9 °F 82% 29.61 in 10.0 mi WNW 13.8 mph - N/A   Clear
7:51 AM 36.0 °F 27.5 °F 30.9 °F 82% 29.63 in 10.0 mi West 12.7 mph - N/A   Scattered Clouds
8:51 AM 39.9 °F 34.5 °F 33.1 °F 77% 29.63 in 10.0 mi WNW 8.1 mph - N/A   Scattered Clouds
9:51 AM 44.1 °F 37.1 °F 33.1 °F 65% 29.62 in 10.0 mi WNW 15.0 mph 21.9 mph N/A   Scattered Clouds
10:51 AM 46.9 °F - 28.9 °F 50% 29.64 in 10.0 mi WNW 27.6 mph 36.8 mph N/A   Overcast
11:51 AM 46.0 °F 38.8 °F 24.1 °F 42% 29.62 in 10.0 mi WNW 18.4 mph 32.2 mph 0.00 in   Scattered Clouds
12:51 PM 48.0 °F - 25.0 °F 41% 29.64 in 10.0 mi WNW 23.0 mph 27.6 mph N/A   Clear
1:51 PM 50.0 °F - 19.9 °F 31% 29.64 in 10.0 mi WNW 18.4 mph 32.2 mph N/A   Partly Cloudy
2:51 PM 46.9 °F - 19.0 °F 33% 29.67 in 10.0 mi WNW 19.6 mph - N/A   Clear
3:51 PM 46.9 °F - 19.0 °F 33% 29.70 in 10.0 mi WNW 20.7 mph 28.8 mph N/A   Overcast
4:51 PM 39.9 °F 33.4 °F 19.0 °F 43% 29.72 in 10.0 mi West 10.4 mph - N/A   Clear
5:51 PM 37.0 °F 32.4 °F 19.0 °F 48% 29.75 in 10.0 mi West 5.8 mph - N/A   Partly Cloudy
6:51 PM 32.0 °F 24.2 °F 19.9 °F 61% 29.78 in 10.0 mi West 9.2 mph - N/A   Clear
7:51 PM 33.1 °F 24.9 °F 21.0 °F 61% 29.79 in 10.0 mi West 10.4 mph - N/A   Clear
8:51 PM 32.0 °F 21.6 °F 21.9 °F 66% 29.81 in 10.0 mi West 15.0 mph - N/A   Clear
9:51 PM 32.0 °F 20.5 °F 23.0 °F 69% 29.81 in 10.0 mi WNW 18.4 mph 26.5 mph N/A   Clear
10:51 PM 30.9 °F 19.1 °F 23.0 °F 72% 29.81 in 10.0 mi West 18.4 mph - N/A   Clear